| time (UTC) | temp F | wind direction | speed MPH | gust MPH | rain 1hr in | rain 24hr in | rain mn in | humidity % | barometer mb |
| 20260504081558 | 55 | 289 | 2.0 | 5.0 | 0.00 | 0.36 | 0.00 | 62 | 1008.1 |
| 20260504044544 | 59 | 285 | 0.0 | 2.0 | 0.00 | 0.36 | 0.36 | 55 | 1007.9 |
| 20260504043043 | 60 | 281 | 2.0 | 4.0 | 0.00 | 0.36 | 0.36 | 56 | 1007.7 |
| 20260504041545 | 61 | 266 | 1.0 | 2.0 | 0.00 | 0.36 | 0.36 | 52 | 1007.5 |
| 20260504040042 | 64 | 270 | 2.0 | 2.0 | 0.00 | 0.36 | 0.36 | 49 | 1007.3 |
| 20260504034546 | 68 | 351 | 0.0 | 2.0 | 0.00 | 0.36 | 0.36 | 40 | 1007.2 |
| 20260504033042 | 69 | 18 | 0.0 | 0.0 | 0.00 | 0.36 | 0.36 | 42 | 1007.1 |
| 20260504031541 | 72 | 54 | 0.0 | 0.0 | 0.00 | 0.36 | 0.36 | 33 | 1007.0 |
| 20260504030043 | 75 | 54 | 0.0 | 0.0 | 0.01 | 0.36 | 0.36 | 34 | 1006.9 |
| 20260504024539 | 77 | 55 | 0.0 | 0.0 | 0.07 | 0.36 | 0.36 | 31 | 1006.8 |
| 20260504023038 | 78 | 57 | 1.0 | 2.0 | 0.07 | 0.36 | 0.36 | 28 | 1006.9 |
| 20260504021536 | 79 | 80 | 1.0 | 5.0 | 0.07 | 0.36 | 0.36 | 25 | 1007.0 |
| 20260504020037 | 80 | 58 | 3.0 | 5.0 | 0.01 | 0.30 | 0.30 | 24 | 1007.2 |
| 20260504014536 | 80 | 77 | 3.0 | 6.0 | 0.00 | 0.28 | 0.28 | 24 | 1007.3 |
| 20260504013033 | 80 | 73 | 4.0 | 8.0 | 0.00 | 0.28 | 0.28 | 24 | 1007.4 |
| 20260504011529 | 81 | 74 | 5.0 | 9.0 | 0.04 | 0.28 | 0.28 | 24 | 1007.5 |
| 20260504010028 | 81 | 69 | 4.0 | 12.0 | 0.23 | 0.28 | 0.28 | 22 | 1007.7 |
| 20260504004526 | 81 | 61 | 6.0 | 11.0 | 0.23 | 0.28 | 0.28 | 23 | 1007.8 |
| 20260504003025 | 81 | 66 | 4.0 | 9.0 | 0.23 | 0.28 | 0.28 | 24 | 1007.9 |
| 20260504001525 | 81 | 45 | 5.0 | 9.0 | 0.23 | 0.25 | 0.25 | 22 | 1007.9 |
| 20260504000022 | 82 | 61 | 4.0 | 9.0 | 0.04 | 0.06 | 0.06 | 24 | 1007.9 |
| 20260503234534 | 81 | 51 | 3.0 | 12.0 | 0.04 | 0.06 | 0.06 | 25 | 1008.0 |
| 20260503233020 | 81 | 87 | 5.0 | 13.0 | 0.04 | 0.06 | 0.06 | 24 | 1008.2 |
| 20260503231518 | 82 | 63 | 8.0 | 13.0 | 0.00 | 0.02 | 0.02 | 24 | 1008.4 |
| 20260503230016 | 81 | 49 | 6.0 | 13.0 | 0.02 | 0.02 | 0.02 | 23 | 1008.6 |
| 20260503224514 | 81 | 67 | 6.0 | 15.0 | 0.02 | 0.02 | 0.02 | 23 | 1008.8 |
| 20260503223110 | 81 | 54 | 8.0 | 19.0 | 0.02 | 0.02 | 0.02 | 25 | 1009.1 |
| 20260503221509 | 81 | 38 | 7.0 | 14.0 | 0.02 | 0.02 | 0.02 | 25 | 1009.4 |
| 20260503220024 | 82 | 71 | 5.0 | 9.0 | 0.00 | 0.00 | 0.00 | 26 | 1009.6 |
| 20260503214505 | 81 | 81 | 7.0 | 15.0 | 0.00 | 0.00 | 0.00 | 25 | 1009.8 |
| 20260503213008 | 81 | 65 | 4.0 | 13.0 | 0.00 | 0.00 | 0.00 | 24 | 1010.0 |
| 20260503211502 | 80 | 69 | 7.0 | 17.0 | 0.00 | 0.00 | 0.00 | 27 | 1010.2 |
| 20260503210105 | 80 | 19 | 7.0 | 14.0 | 0.00 | 0.00 | 0.00 | 29 | 1010.3 |
| 20260503204557 | 80 | 32 | 10.0 | 16.0 | 0.00 | 0.00 | 0.00 | 27 | 1010.5 |
| 20260503203101 | 79 | 34 | 5.0 | 12.0 | 0.00 | 0.00 | 0.00 | 29 | 1010.6 |
| 20260503201552 | 79 | 86 | 6.0 | 13.0 | 0.00 | 0.00 | 0.00 | 29 | 1010.8 |
| 20260503200052 | 78 | 44 | 5.0 | 20.0 | 0.00 | 0.00 | 0.00 | 31 | 1011.0 |
| 20260503194545 | 78 | 59 | 6.0 | 12.0 | 0.00 | 0.00 | 0.00 | 30 | 1011.2 |
| 20260503193047 | 77 | 109 | 0.0 | 12.0 | 0.00 | 0.00 | 0.00 | 33 | 1011.5 |
| 20260503191538 | 77 | 96 | 3.0 | 9.0 | 0.00 | 0.00 | 0.00 | 36 | 1011.7 |
| 20260503190036 | 76 | 119 | 3.0 | 10.0 | 0.00 | 0.00 | 0.00 | 35 | 1011.9 |
| 20260503184532 | 75 | 15 | 5.0 | 8.0 | 0.00 | 0.00 | 0.00 | 35 | 1012.1 |
| 20260503183047 | 74 | 30 | 2.0 | 6.0 | 0.00 | 0.00 | 0.00 | 38 | 1012.3 |
| 20260503181529 | 73 | 38 | 4.0 | 10.0 | 0.00 | 0.00 | 0.00 | 37 | 1012.3 |
| 20260503180027 | 73 | 56 | 3.0 | 12.0 | 0.00 | 0.00 | 0.00 | 36 | 1012.5 |
| 20260503174524 | 73 | 32 | 3.0 | 8.0 | 0.00 | 0.00 | 0.00 | 37 | 1012.7 |
| 20260503173024 | 72 | 62 | 1.0 | 7.0 | 0.00 | 0.00 | 0.00 | 36 | 1012.8 |
| 20260503171520 | 71 | 83 | 4.0 | 9.0 | 0.00 | 0.00 | 0.00 | 37 | 1012.8 |